[[{"header":{"parameterUnit":"m.s-1","parameterCategory":1,"la1":30.2991,"la2":30.254,"lo1":-89.0895,"lo2":-89.0444,"dy":0.0017,"dx":0.0017,"nx":28,"ny":28,"refTime":"2024-03-13T21:00:00:Z","depth":0,"parameterNumber":2,"parameterNumberName":"U-component_of_WINDS"},"data":[0,0,0,0,0,0,0,0,0,0,0,0,0,0,0,0,0,0,0,0,0,0,0,0,0,0,0,0,0,0,0,0,0,0,0,0,0,0,0,0,0,0,0,0,0,0,0,0,0,0,0,0,0,0,0,0,0,0,-3.5548,-3.5548,0,-3.5626,-3.5627,-3.5628,-3.5617,-3.5616,-3.5615,-3.5614,-3.5694,-3.5698,-3.5701,0,0,0,0,0,0,0,0,0,0,0,0,0,-3.5391,-3.5394,-3.5547,-3.5548,-3.5549,-3.5626,-3.5627,-3.5628,-3.5618,-3.5616,-3.5615,-3.5613,-3.5693,-3.5697,-3.5701,0,0,0,0,0,0,0,0,0,0,0,0,0,-3.5463,-3.5395,-3.5547,-3.5554,-3.5555,-3.5626,-3.5627,-3.5628,-3.5618,-3.5616,-3.5614,-3.5612,-3.5692,-3.5697,-3.5702,-3.5772,0,0,-3.5717,-3.5719,0,0,0,0,0,0,0,0,-3.5459,-3.5469,-3.5552,-3.5553,-3.5555,-3.561,-3.5601,-3.5676,-3.5618,-3.5594,-3.5614,-3.5611,-3.5668,-3.5675,-3.5694,-3.5775,-3.5779,-3.5718,-3.5721,-3.5723,-3.5724,0,0,0,0,0,0,0,-3.5454,-3.5465,-3.5578,-3.5553,-3.5555,-3.5553,-3.5561,-3.5615,-3.5641,-3.5596,-3.5595,-3.5605,-3.5668,-3.5689,-3.5696,-3.578,-3.5718,-3.5722,-3.5725,-3.5727,-3.5924,-3.5926,0,0,0,0,0,0,-3.5447,-3.5461,-3.5576,-3.5581,-3.5501,-3.5557,-3.5567,-3.5594,-3.564,-3.5645,-3.5606,-3.5604,-3.5681,-3.569,-3.5698,-3.5783,-3.5723,-3.5728,-3.5731,-3.5922,-3.5924,-3.5927,0,0,0,0,0,0,-3.5444,-3.5458,-3.5573,-3.5521,-3.5536,-3.5562,-3.5593,-3.5597,-3.5617,-3.5648,-3.5653,-3.5622,-3.568,-3.5691,-3.5754,-3.5785,-3.573,-3.5734,-3.5919,-3.5923,-3.5926,-3.5952,0,0,0,0,0,0,-3.544,-3.5456,-3.5482,-3.5522,-3.5538,-3.5626,-3.5595,-3.56,-3.5626,-3.5623,-3.5664,-3.5669,-3.5679,-3.5746,-3.5759,-3.5791,-3.5738,-3.5916,-3.5921,-3.5925,-3.5948,-3.5956,-3.5962,0,0,0,0,0,-3.5434,-3.5487,-3.5484,-3.5498,-3.5571,-3.5628,-3.5637,-3.5648,-3.5628,-3.5655,-3.5675,-3.5668,-3.5781,-3.5753,-3.5767,-3.5801,-3.5914,-3.5919,-3.5924,-3.5945,-3.5954,-3.5962,0,0,0,0,0,0,-3.545,-3.5492,-3.5489,-3.5556,-3.5589,-3.5626,-3.5659,-3.5657,-3.5696,-3.5692,-3.5704,-3.5713,-3.5776,-3.5795,-3.5763,-3.5872,-3.5845,-3.5853,-3.5856,-3.5865,-3.5872,-3.5864,-3.5743,0,0,0,0,0,-3.5461,-3.5503,-3.5538,-3.5594,-3.561,-3.5632,-3.5657,-3.5663,-3.5697,-3.5711,-3.5735,-3.5769,-3.5812,-3.584,-3.5882,-3.5952,-3.5961,-3.5983,-3.599,-3.5996,-3.6002,-3.6041,-3.6051,-3.5943,-3.5943,-3.5943,0,0,-3.5485,-3.5513,-3.5539,-3.5598,-3.5623,-3.5667,-3.5644,-3.5691,-3.5723,-3.5718,-3.5777,-3.5798,-3.5836,-3.5903,-3.5934,-3.5921,-3.6034,-3.6002,-3.6006,-3.6009,-3.6047,-3.6057,-3.6066,-3.5947,-3.5946,-3.5945,0,0,-3.555,-3.5576,-3.5625,-3.5652,-3.5691,-3.5706,-3.5718,-3.5757,-3.577,-3.583,-3.5828,-3.5868,-3.5941,-3.5969,-3.5993,-3.6072,-3.6066,-3.6085,-3.612,-3.6158,-3.6166,-3.6174,-3.6201,-3.6211,-3.6092,-3.6092,-3.6092,0,-3.5574,-3.5639,-3.565,-3.5698,-3.5724,-3.5723,-3.5773,-3.5799,-3.585,-3.5868,-3.5854,-3.5947,-3.5973,-3.6047,-3.6066,-3.6086,-3.61,-3.6079,-3.6164,-3.6172,-3.6179,-3.6205,-3.6216,-3.6094,-3.6093,-3.6093,-3.6093,0,-3.5666,-3.5712,-3.5747,-3.5796,-3.5827,-3.5876,-3.5896,-3.5926,-3.593,-3.5946,-3.6009,-3.6041,-3.6088,-3.6107,-3.6111,-3.6182,-3.6173,-3.6162,-3.6134,-3.6191,-3.6216,-3.6226,-3.6096,-3.6096,-3.6095,-3.6095,0,0,-3.5739,-3.5797,-3.5809,-3.5832,-3.5877,-3.5913,-3.5963,-3.601,-3.6035,-3.6072,-3.6113,-3.6177,-3.6168,-3.6195,-3.6203,-3.6237,-3.6296,-3.6222,-3.6223,-3.6233,-3.6376,-3.6382,-3.6393,-3.6295,-3.6297,-3.6298,-3.6372,0,-3.5807,-3.5893,-3.5907,-3.5983,-3.6026,-3.6026,-3.607,-3.6103,-3.6121,-3.616,-3.6181,-3.6225,-3.621,-3.6226,-3.626,-3.6282,-3.6325,-3.6277,-3.6333,-3.6335,-3.632,-3.6406,-3.6413,-3.648,-3.6382,-3.6383,-3.6385,0,-3.5896,-3.5935,-3.6016,-3.6056,-3.6075,-3.6113,-3.6158,-3.6196,-3.6234,-3.6245,-3.6277,-3.6281,-3.6334,-3.6307,-3.638,-3.6347,-3.6372,-3.6386,-3.6389,-3.6392,-3.6361,-3.641,-3.6502,-3.6511,-3.64,-3.6399,-3.6398,0,-3.594,-3.6013,-3.6071,-3.6091,-3.614,-3.6167,-3.6189,-3.6225,-3.6253,-3.6293,-3.6311,-3.6357,-3.6382,-3.6418,-3.6435,-3.6414,-3.6507,-3.6482,-3.6517,-3.6517,-3.6534,-3.6532,-3.6629,-3.6554,-3.6554,-3.6553,-3.6553,0,-3.6012,-3.6061,-3.6091,-3.6126,-3.6181,-3.6198,-3.6252,-3.6274,-3.6307,-3.6346,-3.6352,-3.6389,-3.6411,-3.6452,-3.6467,-3.6525,-3.6536,-3.6546,-3.6549,-3.6544,-3.6543,-3.6558,-3.6553,-3.6556,-3.6556,-3.6555,-3.6555,0,-3.6068,-3.609,-3.6153,-3.6195,-3.6207,-3.6246,-3.6282,-3.6317,-3.6337,-3.6387,-3.64,-3.643,-3.6479,-3.6501,-3.6562,-3.6572,-3.6637,-3.6638,-3.6624,-3.6624,-3.6658,-3.6653,-3.6766,-3.6781,-3.6698,-3.6699,-3.6699,0,-3.6112,-3.6149,-3.6196,-3.6223,-3.6246,-3.6289,-3.6318,-3.6337,-3.6367,-3.6415,-3.6444,-3.6493,-3.6533,-3.6612,-3.664,-3.6687,-3.6687,-3.6724,-3.6694,-3.6688,-3.6685,-3.6682,-3.6686,-3.6728,-3.6728,-3.6729,-3.673,0,-3.6186,-3.6195,-3.6236,-3.6282,-3.6316,-3.6353,-3.6389,-3.6411,-3.6436,-3.647,-3.652,-3.6551,-3.6614,-3.6663,-3.6712,-3.6736,-3.6737,-3.6739,-3.675,-3.6744,-3.6733,-3.6738,-3.6636,-3.6736,-3.6735,-3.6735,-3.6734,-3.6734,-3.6235,-3.6269,-3.6307,-3.6353,-3.6383,-3.6417,-3.6452,-3.6476,-3.6518,-3.657,-3.658,-3.6633,-3.6673,-3.6739,-3.6764,-3.6807,-3.6798,-3.6814,-3.6817,-3.682,-3.6821,-3.6729,-3.6817,-3.6816,-3.6816,-3.6816,-3.6816,0,-3.6308,-3.6333,-3.6376,-3.6426,-3.6463,-3.6463,-3.6503,-3.6534,-3.658,-3.6617,-3.6657,-3.6716,-3.6764,-3.6797,-3.6846,-3.6874,-3.6876,-3.6886,-3.6882,-3.6888,-3.6827,-3.6812,-3.6883,-3.6883,-3.6883,-3.6883,-3.6883,-3.6883,-3.635,-3.6406,-3.6421,-3.6493,-3.6519,-3.6571,-3.6594,-3.6626,-3.6655,-3.672,-3.676,-3.6781,-3.6817,-3.6869,-3.6914,-3.6923,-3.694,-3.695,-3.6958,-3.6899,-3.6892,-3.6885,-3.6871,-3.6954,-3.6954,-3.7015,-3.7015,-3.7016]},{"header":{"parameterUnit":"m.s-1","parameterCategory":1,"la1":30.2991,"la2":30.254,"lo1":-89.0895,"lo2":-89.0444,"dy":0.0017,"dx":0.0017,"nx":28,"ny":28,"refTime":"2024-03-13T21:00:00:Z","depth":0,"parameterNumber":3,"parameterNumberName":"V-component_of_WINDS"},"data":[0,0,0,0,0,0,0,0,0,0,0,0,0,0,0,0,0,0,0,0,0,0,0,0,0,0,0,0,0,0,0,0,0,0,0,0,0,0,0,0,0,0,0,0,0,0,0,0,0,0,0,0,0,0,0,0,0,0,2.5529,2.5529,0,2.5543,2.5543,2.5543,2.5541,2.5541,2.5541,2.5541,2.5551,2.5551,2.5552,0,0,0,0,0,0,0,0,0,0,0,0,0,2.5497,2.5498,2.5529,2.5529,2.5529,2.5543,2.5543,2.5543,2.5541,2.5541,2.5541,2.5541,2.5551,2.5551,2.5552,0,0,0,0,0,0,0,0,0,0,0,0,0,2.5511,2.5498,2.5529,2.553,2.553,2.5543,2.5543,2.5543,2.5542,2.5541,2.5541,2.5541,2.5551,2.5551,2.5552,2.5563,0,0,2.5554,2.5554,0,0,0,0,0,0,0,0,2.551,2.5512,2.5529,2.553,2.553,2.554,2.5536,2.555,2.5542,2.5537,2.5541,2.554,2.5547,2.5548,2.5552,2.5563,2.5564,2.5554,2.5555,2.5555,2.5555,0,0,0,0,0,0,0,2.5509,2.5512,2.5534,2.553,2.553,2.5529,2.5531,2.5538,2.5544,2.5537,2.5537,2.5539,2.5547,2.5551,2.5552,2.5564,2.5554,2.5555,2.5555,2.5556,2.5589,2.5589,0,0,0,0,0,0,2.5509,2.5511,2.5534,2.5535,2.5519,2.553,2.5532,2.5537,2.5544,2.5544,2.554,2.5539,2.555,2.5551,2.5552,2.5568,2.5555,2.5556,2.5556,2.5588,2.5589,2.5589,0,0,0,0,0,0,2.5508,2.5511,2.5533,2.5523,2.5526,2.5531,2.5537,2.5538,2.5541,2.5545,2.5546,2.5542,2.555,2.5551,2.5561,2.5568,2.5556,2.5557,2.5588,2.5588,2.5589,2.5597,0,0,0,0,0,0,2.5507,2.551,2.5515,2.5523,2.5526,2.5543,2.5537,2.5538,2.5543,2.5543,2.5548,2.5549,2.5549,2.556,2.5562,2.5568,2.5557,2.5587,2.5588,2.5589,2.5596,2.5598,2.5599,0,0,0,0,0,2.5506,2.5515,2.5515,2.5518,2.5532,2.5543,2.5545,2.5547,2.5543,2.5548,2.5551,2.5548,2.5567,2.5561,2.5563,2.557,2.5587,2.5588,2.5589,2.5596,2.5598,2.5599,0,0,0,0,0,0,2.5505,2.5516,2.5516,2.5528,2.5535,2.5543,2.5548,2.5548,2.5555,2.5554,2.5555,2.5556,2.5567,2.5569,2.5563,2.5582,2.5576,2.5578,2.5581,2.5583,2.5584,2.5584,2.5558,0,0,0,0,0,2.5507,2.5516,2.5524,2.5534,2.5538,2.5543,2.5547,2.5549,2.5555,2.5557,2.5561,2.5566,2.5574,2.5578,2.5585,2.5597,2.5599,2.5602,2.5604,2.5605,2.5607,2.5615,2.5618,2.5592,2.5592,2.5592,0,0,2.5509,2.5517,2.5522,2.5534,2.554,2.5549,2.5545,2.5554,2.5561,2.5558,2.5569,2.5572,2.5578,2.559,2.5595,2.5592,2.5614,2.5607,2.5608,2.5608,2.5617,2.5619,2.5621,2.5593,2.5593,2.5593,0,0,2.5519,2.5525,2.5536,2.5542,2.5551,2.5555,2.5558,2.5566,2.5569,2.558,2.5579,2.5587,2.5599,2.5604,2.5608,2.5624,2.5622,2.5625,2.5634,2.5642,2.5644,2.5646,2.5653,2.5656,2.5627,2.5627,2.5627,0,2.5521,2.5536,2.554,2.5551,2.5557,2.5558,2.5569,2.5574,2.5584,2.5588,2.5585,2.5602,2.5606,2.562,2.5624,2.5627,2.563,2.5625,2.5644,2.5646,2.5647,2.5654,2.5657,2.5627,2.5627,2.5627,2.5627,0,2.5539,2.5549,2.5556,2.5569,2.5576,2.5586,2.5592,2.5598,2.56,2.5604,2.5616,2.5622,2.5631,2.5634,2.5634,2.5649,2.5647,2.5644,2.5638,2.565,2.5657,2.5659,2.5628,2.5628,2.5628,2.5627,0,0,2.5546,2.5565,2.5567,2.5574,2.5586,2.5594,2.5605,2.5616,2.5622,2.5629,2.5639,2.5651,2.5649,2.5654,2.5655,2.5662,2.5677,2.5658,2.5658,2.5663,2.5696,2.5699,2.5702,2.5676,2.5676,2.5677,2.5696,0,2.5558,2.558,2.5586,2.5603,2.5614,2.5617,2.5626,2.5635,2.5639,2.5648,2.5653,2.5662,2.5658,2.5661,2.5669,2.5673,2.5683,2.5672,2.5685,2.5685,2.5684,2.5705,2.5708,2.5725,2.5698,2.5698,2.5699,0,2.5575,2.5586,2.5606,2.562,2.5624,2.5633,2.5645,2.5654,2.5664,2.5667,2.5674,2.5675,2.5687,2.568,2.5697,2.5689,2.5695,2.5698,2.5699,2.5701,2.5693,2.5708,2.5731,2.5734,2.5702,2.5702,2.5702,0,2.5581,2.5601,2.5616,2.5622,2.5637,2.5644,2.5651,2.566,2.5668,2.5678,2.5683,2.5693,2.5699,2.5707,2.5711,2.5706,2.5728,2.5721,2.5731,2.5731,2.5736,2.5736,2.5761,2.5738,2.5738,2.5738,2.5738,0,2.5594,2.5607,2.562,2.5629,2.5643,2.565,2.5664,2.567,2.5679,2.569,2.5692,2.5701,2.5706,2.5716,2.5719,2.5734,2.5736,2.5739,2.5739,2.5739,2.5739,2.5743,2.5742,2.5738,2.5738,2.5738,2.5738,0,2.5603,2.5612,2.5629,2.5644,2.5648,2.5658,2.5671,2.568,2.5686,2.5699,2.5703,2.5711,2.5724,2.5729,2.5744,2.5746,2.5763,2.5762,2.5761,2.5761,2.5771,2.5771,2.5801,2.5806,2.5779,2.5779,2.5779,0,2.5611,2.5621,2.5639,2.5647,2.5655,2.5668,2.5676,2.5684,2.5692,2.5706,2.5714,2.5728,2.5739,2.5759,2.5766,2.5777,2.5778,2.5787,2.5779,2.578,2.578,2.5779,2.5781,2.5789,2.5789,2.5789,2.5789,0,2.5625,2.563,2.5644,2.566,2.5671,2.5682,2.5694,2.5701,2.571,2.5719,2.5734,2.5743,2.576,2.5774,2.5787,2.5792,2.5793,2.5792,2.5796,2.5796,2.5795,2.5797,2.5766,2.5791,2.5791,2.5791,2.5791,2.5791,2.5635,2.5645,2.566,2.5676,2.5686,2.5698,2.5709,2.5718,2.573,2.5746,2.575,2.5765,2.5777,2.5795,2.5802,2.5814,2.5811,2.5815,2.5817,2.5818,2.582,2.5793,2.5816,2.5816,2.5816,2.5816,2.5816,0,2.565,2.5661,2.5676,2.5694,2.5707,2.5709,2.5722,2.5732,2.5747,2.5759,2.5771,2.5789,2.5803,2.5813,2.5827,2.5835,2.5836,2.5839,2.5838,2.584,2.582,2.5817,2.5838,2.5838,2.5838,2.5838,2.5838,2.5838,2.566,2.5679,2.5686,2.5711,2.5721,2.5738,2.5746,2.5758,2.5768,2.5789,2.5801,2.5808,2.582,2.5835,2.5849,2.5851,2.5857,2.586,2.5862,2.5843,2.5841,2.5839,2.5836,2.5861,2.5861,2.5881,2.5882,2.5882]}]]